Home   Weather   Corona   Past weeks

Flag for USA Past Weather in Corona, California, USA — Yesterday and Last 2 Weeks

Now
78 °F

Sunny.


Feels Like: 78 °F
Forecast: 58 / 84 °F
Wind: No wind

Location: Chino Airport

Current Time: Oct 21, 2018 at 11:52:42 am

Latest Report: Oct 21, 2018 at 10:53 am


Visibility: 10 mi

Pressure: 29.94 "Hg

Humidity: 28%

Dew Point: 42 °F

Location of CoronaLocation

Past Weather in Corona — Graph

°F

Corona Temperature Yesterday

Maximum temperature yesterday: 92 °F (at 2:53 pm)
Minimum temperature yesterday: 52 °F (at 5:53 am)
Average temperature yesterday: 72 °F

High & Low Weather Summary for the Past Weeks

 TemperatureHumidityPressure
High92 °F (Oct 20, 2:53 pm)100% (Oct 12, 11:27 pm)30.11 "Hg (Oct 12, 11:27 pm)
Low49 °F (Oct 16, 6:53 am)4% (Oct 15, 4:53 pm)29.69 "Hg (Oct 12, 3:53 pm)
Average68 °F54%29.90 "Hg
* Reported Oct 6 9:53 am — Oct 21 9:53 am, Corona. Weather by CustomWeather, © 2018

Note: Actual official high and low records may vary slightly from our data, if they occured in-between our weather recording intervals... More about our weather records

Advertising

Corona Weather History for the Previous 24 Hours

Scroll right to see more
 ConditionsComfort  
Time TempWeatherWind HumidityBarometerVisibility
9:53 am
Sun, Oct 21
72 °FSunny.No wind37%29.95 "Hg10 mi
8:53 am65 °FSunny.No wind52%29.96 "Hg10 mi
7:53 am60 °FSunny.No wind65%29.94 "Hg10 mi
6:53 am56 °FClear.No wind72%29.93 "Hg10 mi
5:53 am56 °FClear.No wind72%29.91 "Hg5 mi
4:53 am56 °FClear.No wind70%29.90 "Hg6 mi
3:53 am58 °FClear.No wind65%29.90 "Hg6 mi
2:53 am57 °FClear.3 mph64%29.90 "Hg6 mi
1:53 am64 °FClear.6 mph49%29.90 "Hg6 mi
12:53 am63 °FClear.3 mph47%29.91 "Hg7 mi
11:53 pm
Sat, Oct 20
63 °FClear.No wind50%29.92 "Hg6 mi
10:53 pm62 °FClear.9 mph58%29.93 "Hg6 mi
9:53 pm66 °FClear.5 mph43%29.93 "Hg7 mi
8:53 pm71 °FPassing clouds.5 mph35%29.91 "Hg10 mi
7:53 pm73 °FClear.3 mph33%29.90 "Hg10 mi
6:53 pm79 °FPassing clouds.9 mph23%29.88 "Hg10 mi
5:53 pm82 °FPassing clouds.7 mph18%29.85 "Hg10 mi
4:53 pm87 °FPassing clouds.13 mph16%29.85 "Hg10 mi
4:10 pm92 °FPassing clouds.14 mph13%29.86 "Hg10 mi
3:53 pm92 °FPassing clouds.No wind13%29.86 "Hg10 mi
2:53 pm92 °FSunny.9 mph12%29.86 "Hg10 mi
1:53 pm91 °FSunny.7 mph12%29.88 "Hg10 mi
12:53 pm90 °FPassing clouds.No wind12%29.92 "Hg10 mi
11:53 am91 °FSunny.3 mph12%29.94 "Hg10 mi
Weather by CustomWeather, © 2018

See weather overview